1499382000.82,58859,17.44,74322.8,0.55,-17.79,-26.49,0,*45
1499382002.05,58860,17.44,74322.5,0.55,-17.79,-26.49,0,*4F
1499382003.26,58861,17.44,74322.5,0.55,-17.83,-26.61,0,*41
1499382004.5,58862,17.44,74320.0,0.55,-17.93,-26.49,0,*49
1499382005.74,58863,17.44,74316.0,0.55,-18.07,-26.71,0,*41
1499382006.97,58864,17.44,74326.5,0.55,-18.21,-26.71,0,*42
1499382008.18,58865,17.44,74322.0,0.57,-18.11,-26.71,0,*42
1499382009.37,58866,17.44,74314.8,0.57,-17.83,-26.65,0,*40
1499382010.58,58867,17.44,74320.0,0.57,-17.79,-26.65,0,*44
1499382011.76,58868,17.44,74324.8,0.57,-18.11,-26.65,0,*4A
1499382012.97,58869,17.44,74322.0,0.57,-18.55,-27.13,0,*4B
1499382014.18,58870,17.44,74316.8,0.57,-18.55,-27.13,0,*43
1499382015.39,58871,17.44,74330.8,0.57,-18.55,-27.03,0,*43
1499382016.66,58872,17.44,74322.3,0.55,-18.35,-26.97,0,*48
1499382017.87,58873,17.44,74318.0,0.57,-18.11,-26.81,0,*4A
1499382019.08,58874,17.44,74312.8,0.57,-18.25,-26.71,0,*45
1499382020.32,58875,17.44,74316.0,0.57,-18.35,-26.81,0,*4A
1499382021.54,58876,17.44,74320.8,0.57,-18.41,-26.97,0,*4D
1499382022.75,58877,17.44,74322.5,0.55,-18.49,-27.03,0,*4A
1499382023.97,58878,17.44,74318.8,0.57,-18.55,-27.29,0,*42
1499382025.18,58879,17.44,74320.5,0.57,-18.35,-27.03,0,*4D
1499382026.42,58880,17.44,74318.5,0.57,-18.35,-26.81,0,*40
1499382027.64,58881,17.44,74316.8,0.57,-18.69,-27.19,0,*48
1499382028.85,58882,17.44,74316.3,0.57,-18.99,-27.35,0,*4A
1499382030.07,58883,17.44,74320.0,0.57,-19.03,-27.35,0,*49
1499382031.28,58884,17.44,74326.8,0.57,-19.13,-27.45,0,*48
1499382032.47,58885,17.44,74324.8,0.57,-19.03,-27.29,0,*42
1499382033.75,58886,17.44,74326.5,0.59,-19.27,-27.61,0,*45
1499382035.01,58887,17.44,74322.3,0.59,-19.23,-27.45,0,*46
1499382036.24,58888,17.44,74320.3,0.59,-18.99,-27.45,0,*49
1499382037.48,58889,17.44,74320.8,0.59,-18.49,-27.23,0,*45
1499382038.72,58890,17.44,74310.5,0.59,-18.65,-27.23,0,*43
1499382039.97,58891,17.44,74294.0,0.59,-19.27,-27.67,0,*45
1499382041.22,58892,17.44,74316.3,0.61,-19.23,-27.61,0,*4F
1499382042.45,58893,17.44,74320.3,0.59,-18.99,-27.45,0,*43
1499382043.69,58894,17.44,74316.3,0.59,-19.07,-27.45,0,*42
1499382044.93,58895,17.44,74310.3,0.61,-19.31,-27.61,0,*4B
1499382046.13,58896,17.44,74314.8,0.61,-19.51,-27.77,0,*49
1499382047.35,58897,17.44,74298.3,0.59,-19.37,-27.67,0,*42
1499382048.59,58898,17.44,74304.5,0.59,-18.79,-27.23,0,*46
1499382049.8,58899,17.44,74304.5,0.61,-18.73,-27.23,0,*46
1499382051.04,58900,17.44,74306.5,0.61,-18.89,-27.39,0,*49
1499382052.28,58901,17.44,74316.8,0.63,-19.13,-27.45,0,*43
1499382053.47,58902,17.44,74316.3,0.65,-19.47,-27.71,0,*40
1499382054.68,58903,17.44,74304.3,0.63,-19.51,-27.71,0,*40
1499382055.93,58904,17.44,74300.8,0.63,-19.37,-27.39,0,*4B
1499382057.17,58905,17.44,74294.0,0.63,-19.07,-27.35,0,*45
1499382058.37,58906,17.44,74298.3,0.65,-19.13,-27.29,0,*48
1499382059.61,58907,17.38,74300.3,0.63,-19.03,-27.39,0,*4F
1499382060.83,58908,17.44,74306.8,0.65,-19.17,-27.35,0,*4F
1499382062.04,58909,17.44,74302.8,0.65,-19.03,-27.19,0,*45
1499382063.26,58910,17.44,74306.0,0.65,-19.13,-27.35,0,*42
1499382064.47,58911,17.44,74310.0,0.65,-19.37,-27.45,0,*42
1499382065.66,58912,17.44,74312.0,0.65,-19.47,-27.55,0,*47
1499382066.93,58913,17.44,74312.5,0.63,-19.65,-27.61,0,*47
1499382068.14,58914,17.44,74316.8,0.65,-19.51,-27.83,0,*4D
1499382069.39,58915,17.44,74312.3,0.67,-19.61,-27.67,0,*47
1499382070.61,58916,17.44,74314.5,0.67,-19.51,-27.55,0,*46
1499382071.85,58917,17.44,74312.5,0.67,-19.51,-27.83,0,*4C
1499382073.05,58918,17.44,74318.0,0.65,-19.17,-27.51,0,*4C
1499382074.27,58919,17.44,74314.5,0.67,-19.51,-27.67,0,*48
1499382075.51,58920,17.44,74314.8,0.67,-19.65,-27.89,0,*45
1499382076.76,58921,17.44,74316.0,0.67,-19.91,-27.99,0,*4E
1499382077.97,58922,17.44,74316.5,0.67,-20.09,-28.15,0,*4D
1499382079.16,58923,17.44,74312.5,0.69,-20.05,-28.15,0,*4E
1499382080.41,58924,17.44,74298.5,0.67,-19.95,-27.99,0,*4F
1499382081.62,58925,17.44,74292.8,0.69,-20.19,-28.15,0,*45
1499382082.84,58926,17.44,74304.8,0.67,-20.39,-28.37,0,*4A
1499382084.1,58927,17.44,74306.0,0.67,-20.53,-28.47,0,*40
1499382085.32,58928,17.44,74312.8,0.67,-20.43,-28.37,0,*49
1499382086.54,58929,17.44,74312.0,0.67,-20.39,-28.37,0,*45
1499382087.72,58930,17.44,74314.0,0.65,-20.29,-28.15,0,*4E
1499382088.9,58931,17.44,74320.5,0.65,-20.29,-28.15,0,*4F
1499382090.09,58932,17.44,74314.5,0.65,-20.39,-28.31,0,*4B
1499382091.33,58933,17.44,74310.0,0.65,-20.53,-28.47,0,*47
1499382092.55,58934,17.44,74310.8,0.67,-20.43,-28.31,0,*42
1499382093.82,58935,17.44,74316.0,0.67,-20.53,-28.47,0,*43
1499382095.06,58936,17.44,74314.5,0.67,-20.59,-28.47,0,*4A
1499382096.27,58937,17.44,74316.0,0.67,-20.73,-28.53,0,*46
1499382097.53,58938,17.44,74318.8,0.67,-20.99,-28.75,0,*49
1499382098.75,58939,17.44,74322.8,0.63,-20.89,-28.69,0,*40
1499382099.94,58940,17.44,74322.3,0.65,-20.69,-28.37,0,*4D
1499382101.16,58941,17.44,74312.8,0.65,-20.43,-28.21,0,*43
1499382102.35,58942,17.44,74314.0,0.65,-20.69,-28.31,0,*49
1499382103.55,58943,17.44,74318.3,0.65,-20.69,-28.47,0,*49
1499382104.79,58944,17.44,74316.3,0.65,-20.83,-28.47,0,*4A
1499382106.0,58945,17.44,74324.8,0.65,-20.89,-28.47,0,*41
1499382107.24,58946,17.44,74326.8,0.63,-20.79,-28.53,0,*4E
1499382108.43,58947,17.44,74328.8,0.65,-20.59,-28.31,0,*4F
1499382109.64,58948,17.44,74324.8,0.63,-20.73,-28.37,0,*48
1499382110.86,58949,17.44,74330.3,0.65,-20.43,-28.05,0,*4D
1499382112.11,58950,17.38,74324.0,0.63,-20.59,-28.21,0,*4E
1499382113.35,58951,17.44,74330.3,0.65,-20.83,-28.47,0,*4E
1499382114.56,58952,17.44,74332.3,0.65,-21.03,-28.53,0,*41
1499382115.8,58953,17.44,74336.8,0.63,-21.03,-28.53,0,*46
1499382117.01,58954,17.44,74338.8,0.65,-21.03,-28.53,0,*47
1499382118.22,58955,17.44,74332.5,0.65,-20.83,-28.37,0,*4D
1499382119.41,58956,17.44,74324.8,0.65,-20.69,-28.15,0,*4A
1499382120.65,58957,17.44,74316.5,0.63,-20.73,-28.21,0,*41
1499382121.87,58958,17.44,74308.0,0.65,-20.83,-28.31,0,*46
1499382123.09,58959,17.44,74302.3,0.65,-20.59,-27.99,0,*4D
1499382124.32,58960,17.44,74302.8,0.65,-21.03,-28.47,0,*45
1499382125.54,58961,17.44,74310.5,0.65,-21.03,-28.53,0,*41
1499382126.75,58962,17.44,74312.8,0.65,-21.17,-28.63,0,*44
1499382127.97,58963,17.44,74312.8,0.65,-21.17,-28.63,0,*45
1499382129.21,58964,17.44,74314.0,0.63,-21.33,-28.69,0,*48
1499382130.45,58965,17.38,74310.3,0.63,-21.23,-28.53,0,*41
1499382131.63,58966,17.44,74304.8,0.65,-21.13,-28.53,0,*47
1499382132.82,58967,17.38,74296.3,0.65,-21.17,-28.53,0,*42
1499382134.04,58968,17.44,74292.3,0.61,-21.17,-28.59,0,*43
1499382135.28,58969,17.38,74312.5,0.61,-21.23,-28.59,0,*45
1499382136.5,58970,17.44,74302.5,0.61,-21.03,-28.53,0,*45
1499382137.71,58971,17.44,74314.0,0.61,-21.09,-28.43,0,*4F
1499382138.95,58972,17.44,74314.3,0.61,-21.23,-28.59,0,*4F
1499382140.18,58973,17.44,74316.0,0.59,-21.09,-28.47,0,*42
1499382141.42,58974,17.44,74328.0,0.61,-20.49,-28.05,0,*4D
1499382142.64,58975,17.44,74314.3,0.65,-20.49,-27.89,0,*43
1499382143.88,58976,17.44,74310.3,0.63,-20.63,-28.05,0,*45
1499382145.1,58977,17.38,74318.3,0.65,-20.59,-28.05,0,*4B
1499382146.32,58978,17.38,74312.5,0.65,-20.83,-28.15,0,*42
1499382147.53,58979,17.44,74308.3,0.65,-20.89,-28.25,0,*4A
1499382148.75,58980,17.44,74308.5,0.65,-20.83,-28.15,0,*45
1499382149.99,58981,17.44,74314.0,0.65,-20.99,-28.21,0,*48
1499382151.26,58982,17.38,74312.0,0.63,-21.23,-28.59,0,*42
1499382152.53,58983,17.38,74316.0,0.63,-21.23,-28.59,0,*43
1499382153.79,58984,17.44,74322.3,0.63,-21.33,-28.59,0,*45
1499382155.0,58985,17.38,74322.8,0.65,-21.33,-28.53,0,*48
1499382156.24,58986,17.38,74320.3,0.63,-21.39,-28.59,0,*4D
1499382157.48,58987,17.38,74320.0,0.63,-21.33,-28.69,0,*45
1499382158.69,58988,17.38,74318.0,0.63,-21.09,-28.37,0,*48
1499382159.95,58989,17.44,74324.8,0.63,-21.03,-28.43,0,*40
1499382161.16,58990,17.44,74322.5,0.65,-21.09,-28.25,0,*44
1499382162.4,58991,17.38,74324.3,0.63,-21.23,-28.53,0,*4A
1499382163.62,58992,17.44,74326.8,0.61,-21.33,-28.53,0,*4A
1499382164.83,58993,17.38,74326.8,0.61,-21.09,-28.43,0,*43
1499382166.04,58994,17.38,74328.5,0.59,-21.09,-28.37,0,*4C
1499382167.3,58995,17.44,74334.0,0.59,-21.23,-28.59,0,*4D
1499382168.52,58996,17.44,74324.8,0.61,-20.73,-28.05,0,*48
1499382169.73,58997,17.44,74322.5,0.61,-20.73,-28.09,0,*45
1499382170.91,58998,17.44,74322.5,0.61,-20.73,-27.93,0,*46
1499382172.1,58999,17.38,74320.3,0.61,-20.73,-27.93,0,*47
1499382173.32,59000,17.44,74316.8,0.61,-20.89,-28.09,0,*46
1499382174.58,59001,17.38,74318.8,0.63,-20.79,-28.05,0,*46
1499382175.84,59002,17.38,74316.0,0.63,-20.79,-28.05,0,*45
1499382177.09,59003,17.38,74318.0,0.63,-20.93,-28.21,0,*46
1499382178.33,59004,17.38,74322.8,0.63,-20.93,-28.25,0,*45
1499382179.57,59005,17.38,74322.8,0.63,-20.89,-28.05,0,*4D
1499382180.79,59006,17.38,74316.3,0.65,-21.03,-28.31,0,*4C
1499382182.0,59007,17.38,74310.8,0.63,-21.09,-28.37,0,*47
1499382183.21,59008,17.38,74318.3,0.65,-20.89,-28.09,0,*4A
1499382184.46,59009,17.44,74324.8,0.65,-20.83,-28.05,0,*4D
1499382185.67,59010,17.38,74322.0,0.65,-21.03,-28.37,0,*4D
1499382186.88,59011,17.38,74320.8,0.65,-20.83,-28.15,0,*45
1499382188.12,59012,17.38,74318.8,0.63,-21.09,-28.25,0,*40
1499382189.34,59013,17.44,74326.8,0.65,-20.99,-28.15,0,*4C
1499382190.53,59014,17.38,74312.0,0.65,-21.13,-28.37,0,*48
1499382191.76,59015,17.38,74312.5,0.63,-20.93,-28.09,0,*4B
1499382193.0,59016,17.44,74316.5,0.65,-20.53,-27.83,0,*4F
1499382194.24,59017,17.38,74316.8,0.65,-20.83,-27.99,0,*48
1499382195.48,59018,17.38,74314.3,0.63,-21.17,-28.25,0,*45
1499382196.69,59019,17.38,74314.8,0.63,-21.17,-28.37,0,*47
1499382197.89,59020,17.38,74302.3,0.65,-21.13,-28.31,0,*49
1499382199.15,59021,17.38,74304.8,0.63,-21.33,-28.43,0,*49
1499382200.36,59022,17.38,74304.5,0.63,-21.39,-28.53,0,*41
1499382201.6,59023,17.38,74308.3,0.63,-21.39,-28.59,0,*4A
1499382202.79,59024,17.38,74312.0,0.61,-21.39,-28.69,0,*4C
1499382204.02,59025,17.38,74316.0,0.63,-21.43,-28.59,0,*41
1499382205.26,59026,17.38,74316.5,0.63,-21.39,-28.59,0,*4F
1499382206.51,59027,17.44,74322.3,0.63,-21.53,-28.69,0,*41
1499382207.73,59028,17.38,74326.0,0.61,-21.53,-28.69,0,*4C
1499382208.94,59029,17.38,74328.3,0.63,-21.43,-28.69,0,*4E
1499382210.12,59030,17.38,74326.0,0.61,-21.39,-28.69,0,*49
1499382211.34,59031,17.38,74330.3,0.61,-21.33,-28.53,0,*4B
1499382212.58,59032,17.38,74334.5,0.59,-21.27,-28.31,0,*42
1499382213.83,59033,17.38,74336.0,0.59,-21.27,-28.31,0,*43
1499382215.04,59034,17.38,74330.0,0.61,-21.09,-28.21,0,*42
1499382216.25,59035,17.38,74330.5,0.61,-20.79,-27.89,0,*48
1499382217.46,59036,17.38,74332.0,0.59,-20.69,-27.77,0,*40
1499382218.65,59037,17.38,74330.5,0.61,-20.63,-27.77,0,*40
1499382219.87,59038,17.38,74326.3,0.63,-20.89,-27.77,0,*49
1499382221.08,59039,17.38,74312.3,0.63,-20.93,-27.93,0,*49
1499382222.34,59040,17.38,74316.5,0.63,-21.03,-28.05,0,*4F
1499382223.54,59041,17.38,74314.8,0.61,-20.89,-27.93,0,*4F
1499382224.72,59042,17.38,74314.8,0.61,-20.93,-27.93,0,*47
1499382225.99,59043,17.38,74308.0,0.59,-20.99,-28.09,0,*4B
1499382227.18,59044,17.38,74300.8,0.61,-20.89,-27.93,0,*4A
1499382228.39,59045,17.38,74306.8,0.61,-20.93,-28.09,0,*4C
1499382229.6,59046,17.38,74300.0,0.61,-20.79,-27.93,0,*47
1499382230.82,59047,17.38,74304.5,0.61,-20.93,-28.09,0,*4E
1499382232.03,59048,17.38,74310.0,0.61,-21.39,-28.43,0,*4E
1499382233.24,59049,17.38,74312.0,0.61,-21.39,-28.59,0,*44
1499382234.45,59050,17.38,74306.8,0.61,-21.43,-28.59,0,*41
1499382235.67,59051,17.38,74306.0,0.61,-21.43,-28.59,0,*40
1499382236.91,59052,17.38,74306.8,0.59,-21.43,-28.63,0,*41
1499382238.15,59053,17.38,74314.5,0.59,-21.39,-28.59,0,*44
1499382239.38,59054,17.38,74308.5,0.59,-21.43,-28.63,0,*47
1499382240.6,59055,17.38,74306.8,0.61,-21.43,-28.59,0,*44
1499382241.84,59056,17.38,74306.3,0.59,-21.47,-28.63,0,*41
1499382243.08,59057,17.38,74304.5,0.59,-21.47,-28.63,0,*40
1499382244.32,59058,17.38,74308.0,0.59,-21.43,-28.59,0,*42
1499382245.56,59059,17.38,74308.8,0.59,-21.39,-28.59,0,*4E
1499382246.79,59060,17.38,74310.0,0.55,-21.43,-28.47,0,*4A
1499382248.01,59061,17.38,74308.8,0.57,-21.27,-28.31,0,*4A
1499382249.23,59062,17.38,74310.3,0.59,-21.13,-28.31,0,*40
1499382250.46,59063,17.38,74312.3,0.59,-20.83,-27.93,0,*4E
1499382251.7,59064,17.38,74314.5,0.59,-20.83,-27.93,0,*49
1499382252.95,59065,17.38,74308.8,0.59,-21.27,-28.31,0,*40
1499382254.19,59066,17.38,74310.5,0.61,-21.23,-28.21,0,*4D
1499382255.43,59067,17.38,74308.0,0.59,-21.39,-28.43,0,*48
1499382256.66,59068,17.38,74312.8,0.59,-21.43,-28.59,0,*41
1499382257.91,59069,17.38,74314.3,0.59,-21.47,-28.63,0,*4D
1499382259.09,59070,17.38,74312.3,0.61,-21.43,-28.53,0,*49
1499382260.33,59071,17.38,74310.3,0.59,-21.47,-28.47,0,*42
1499382261.54,59072,17.38,74310.8,0.59,-21.43,-28.31,0,*44
1499382262.76,59073,17.38,74306.5,0.61,-21.43,-28.59,0,*40
1499382264.0,59074,17.38,74306.5,0.59,-21.39,-28.25,0,*4A
1499382265.27,59075,17.38,74310.0,0.59,-21.27,-28.25,0,*44
1499382266.5,59076,17.38,74312.5,0.59,-21.43,-28.47,0,*41
1499382267.71,59077,17.38,74310.8,0.61,-21.39,-28.59,0,*49
1499382268.93,59078,17.38,74312.8,0.61,-21.53,-28.53,0,*40
1499382270.15,59079,17.38,74316.5,0.61,-21.53,-28.53,0,*41
1499382271.37,59080,17.38,74318.3,0.61,-21.57,-28.53,0,*43
1499382272.6,59081,17.38,74314.5,0.63,-21.43,-28.43,0,*44
1499382273.85,59082,17.38,74300.5,0.63,-21.53,-28.37,0,*45
1499382275.09,59083,17.38,74300.0,0.63,-21.43,-28.21,0,*42
1499382276.27,59084,17.38,74276.3,0.65,-21.17,-27.89,0,*4F
1499382277.48,59085,17.38,74276.5,0.65,-21.63,-28.47,0,*40
1499382278.71,59086,17.38,74294.5,0.65,-21.83,-28.75,0,*4C
1499382279.95,59087,17.38,74298.0,0.63,-22.11,-28.91,0,*49
1499382281.16,59088,17.38,74294.8,0.63,-22.03,-28.69,0,*42
1499382282.4,59089,17.38,74288.8,0.63,-21.83,-28.69,0,*48
1499382283.67,59090,17.44,74300.3,0.63,-21.83,-28.59,0,*43
1499382284.88,59091,17.38,74292.5,0.65,-21.83,-28.53,0,*4E
1499382286.14,59092,17.38,74300.3,0.63,-22.17,-28.79,0,*4D
1499382287.41,59093,17.38,74298.8,0.63,-22.17,-28.91,0,*4A
1499382288.62,59094,17.38,74298.0,0.61,-22.03,-28.79,0,*4C
1499382289.86,59095,17.38,74298.5,0.61,-22.17,-28.91,0,*4E
1499382291.04,59096,17.38,74300.3,0.61,-22.27,-29.07,0,*40
1499382292.23,59097,17.38,74300.3,0.61,-22.27,-28.97,0,*49
1499382293.45,59098,17.38,74300.5,0.61,-21.87,-28.69,0,*4E
1499382294.69,59099,17.38,74306.8,0.61,-21.97,-28.59,0,*4D
1499382295.93,59100,17.38,74312.3,0.61,-21.87,-28.59,0,*4D
1499382297.14,59101,17.38,74296.8,0.63,-22.27,-28.97,0,*45
1499382298.38,59102,17.38,74296.3,0.63,-21.83,-28.53,0,*43
1499382299.65,59103,17.38,74284.5,0.67,-22.21,-28.91,0,*43
1499382300.89,59104,17.38,74286.3,0.63,-22.53,-29.29,0,*47
1499382302.15,59105,17.38,74294.8,0.63,-22.47,-29.17,0,*4E
1499382303.38,59106,17.38,74288.3,0.63,-22.53,-29.29,0,*45
1499382304.6,59107,17.38,74298.3,0.63,-22.53,-29.23,0,*4E
1499382305.83,59108,17.38,74288.5,0.65,-22.47,-29.13,0,*41
1499382307.06,59109,17.38,74294.0,0.63,-22.63,-29.13,0,*40
1499382308.29,59110,17.38,74298.8,0.63,-22.53,-29.13,0,*4B
1499382309.52,59111,17.38,74296.8,0.63,-22.37,-29.13,0,*48
1499382310.74,59112,17.38,74296.8,0.63,-22.53,-29.23,0,*4A
1499382311.92,59113,17.38,74296.3,0.61,-22.67,-29.23,0,*4E
1499382313.15,59114,17.38,74300.3,0.63,-22.67,-29.39,0,*40
1499382314.39,59115,17.38,74300.5,0.61,-22.77,-29.39,0,*42
1499382315.58,59116,17.38,74300.0,0.61,-22.83,-29.45,0,*41
1499382316.76,59117,17.38,74308.8,0.61,-22.63,-29.23,0,*4E
1499382317.98,59118,17.38,74306.3,0.59,-22.53,-28.97,0,*47
1499382319.19,59119,17.38,74304.0,0.61,-22.31,-28.69,0,*48
1499382320.38,59120,17.38,74304.8,0.61,-22.11,-28.53,0,*49
1499382321.6,59121,17.38,74308.0,0.61,-22.27,-28.59,0,*47
1499382322.83,59122,17.38,74302.3,0.63,-22.31,-28.69,0,*42
1499382324.08,59123,17.38,74308.5,0.63,-22.17,-28.53,0,*4E
1499382325.32,59124,17.38,74310.5,0.65,-22.31,-28.63,0,*48
1499382326.5,59125,17.38,74308.5,0.65,-22.63,-29.07,0,*4D
1499382327.73,59126,17.38,74308.5,0.67,-22.63,-29.17,0,*4D
1499382328.97,59127,17.38,74312.8,0.67,-22.93,-29.39,0,*4F
1499382330.24,59128,17.38,74312.5,0.67,-23.03,-29.51,0,*46
1499382331.46,59129,17.38,74308.3,0.67,-23.09,-29.57,0,*4B
1499382332.71,59130,17.38,74310.0,0.67,-22.57,-28.91,0,*42
1499382333.92,59131,17.38,74306.0,0.69,-22.37,-28.79,0,*4D
1499382335.13,59132,17.38,74304.8,0.69,-22.63,-29.01,0,*41
1499382336.36,59133,17.38,74310.0,0.69,-22.73,-29.01,0,*41
1499382337.61,59134,17.38,74306.5,0.69,-23.03,-29.35,0,*47
1499382338.81,59135,17.38,74308.5,0.69,-22.87,-29.17,0,*4B
1499382340.02,59136,17.38,74310.3,0.69,-22.83,-29.13,0,*48
1499382341.2,59137,17.38,74308.5,0.73,-22.67,-28.97,0,*45
1499382342.41,59138,17.38,74304.3,0.73,-22.67,-28.79,0,*4A
1499382343.62,59139,17.38,74300.0,0.73,-22.37,-28.63,0,*45
1499382344.83,59140,17.38,74294.3,0.73,-22.97,-29.13,0,*47
1499382346.02,59141,17.38,74298.8,0.77,-22.93,-29.07,0,*43
1499382347.24,59142,17.38,74296.8,0.77,-23.03,-29.23,0,*4E
1499382348.44,59143,17.38,74300.5,0.77,-23.09,-29.23,0,*45
1499382349.67,59144,17.38,74304.0,0.77,-22.77,-28.85,0,*47
1499382350.87,59145,17.38,74310.0,0.77,-23.09,-29.07,0,*45
1499382352.12,59146,17.38,74306.5,0.79,-22.93,-29.01,0,*4C
1499382353.39,59147,17.38,74306.5,0.79,-23.19,-29.17,0,*49
1499382354.64,59148,17.38,74304.5,0.79,-23.39,-29.39,0,*48
1499382355.88,59149,17.38,74312.0,0.81,-23.49,-29.29,0,*48
1499382357.13,59150,17.38,74312.0,0.79,-23.43,-29.39,0,*4C
1499382358.33,59151,17.38,74314.3,0.81,-23.13,-28.97,0,*4A
1499382359.58,59152,17.38,74296.3,0.83,-22.87,-28.79,0,*47
1499382360.78,59153,17.38,74294.5,0.81,-22.83,-28.69,0,*41
1499382361.99,59154,17.38,74302.3,0.81,-22.97,-28.85,0,*41
1499382363.24,59155,17.38,74300.8,0.83,-23.13,-29.01,0,*42
1499382364.51,59156,17.38,74294.8,0.83,-23.33,-29.29,0,*49
1499382365.78,59157,17.38,74300.8,0.83,-23.33,-29.29,0,*48
1499382367.02,59158,17.38,74298.5,0.83,-23.79,-29.67,0,*43
1499382368.3,59159,17.38,74306.8,0.83,-23.99,-30.01,0,*44
1499382369.58,59160,17.38,74306.8,0.83,-24.11,-30.01,0,*49
1499382370.86,59161,17.38,74314.3,0.83,-23.99,-30.01,0,*4F
1499382372.12,59162,17.38,74314.0,0.83,-23.99,-29.83,0,*4E
1499382373.34,59163,17.38,74302.5,0.81,-23.69,-29.45,0,*48
1499382374.58,59164,17.38,74308.8,0.81,-24.11,-29.83,0,*4D
1499382375.8,59165,17.38,74302.8,0.81,-24.15,-29.83,0,*48
1499382377.06,59166,17.38,74310.5,0.81,-23.95,-29.51,0,*4B
1499382378.35,59167,17.38,74304.5,0.83,-23.95,-29.51,0,*48
1499382379.6,59168,17.38,74310.5,0.83,-23.95,-29.57,0,*41
1499382380.88,59169,17.38,74314.8,0.83,-24.11,-29.73,0,*4D
1499382382.14,59170,17.38,74314.0,0.81,-23.85,-29.51,0,*4D
1499382383.38,59171,17.38,74312.3,0.81,-23.69,-29.17,0,*4C
1499382384.63,59172,17.38,74314.0,0.83,-23.39,-29.01,0,*4F
1499382385.86,59173,17.38,74320.5,0.85,-23.43,-28.91,0,*4D
1499382387.08,59174,17.38,74322.0,0.85,-23.13,-28.75,0,*45
1499382388.31,59175,17.38,74324.3,0.85,-22.97,-28.47,0,*48
1499382389.51,59176,17.38,74316.8,0.89,-23.09,-28.69,0,*4D
1499382390.71,59177,17.38,74322.3,0.89,-23.13,-28.53,0,*4E
1499382391.96,59178,17.38,74320.3,0.89,-23.53,-28.91,0,*4B
1499382393.18,59179,17.38,74326.0,0.91,-23.39,-28.53,0,*41
1499382394.41,59180,17.38,74324.5,0.93,-23.33,-28.53,0,*4F
1499382395.66,59181,17.38,74320.3,0.93,-23.65,-29.01,0,*4B
1499382396.89,59182,17.38,74318.3,0.93,-23.79,-29.01,0,*45
1499382398.11,59183,17.38,74304.8,0.97,-23.95,-29.23,0,*42
1499382399.38,59184,17.38,74300.5,0.99,-23.99,-29.13,0,*44
1499382400.62,59185,17.38,74306.3,0.99,-24.47,-29.67,0,*42
1499382401.86,59186,17.38,74308.8,0.97,-24.77,-30.17,0,*43
1499382403.05,59187,17.38,74312.8,0.93,-24.97,-30.23,0,*4F
1499382404.28,59188,17.38,74314.5,0.93,-24.77,-30.01,0,*4E
1499382405.55,59189,17.38,74322.3,0.91,-24.77,-29.89,0,*45
1499382406.78,59190,17.38,74314.0,0.93,-24.47,-29.39,0,*47
1499382408.01,59191,17.38,74308.0,0.93,-24.51,-29.51,0,*4F
1499382409.27,59192,17.38,74312.3,0.91,-24.35,-29.39,0,*42
1499382410.5,59193,17.38,74314.0,0.93,-24.35,-29.35,0,*4D
1499382411.74,59194,17.38,74310.5,0.93,-24.51,-29.35,0,*48
1499382412.96,59195,17.38,74302.3,0.97,-24.11,-28.97,0,*40
1499382414.16,59196,17.38,74304.5,0.97,-24.31,-29.23,0,*4F
1499382415.4,59197,17.38,74296.3,0.97,-24.47,-29.35,0,*48
1499382416.63,59198,17.38,74296.8,0.97,-24.25,-29.07,0,*42
1499382417.89,59199,17.38,74286.8,0.99,-24.61,-29.51,0,*4E
1499382419.14,59200,17.38,74304.3,0.99,-25.09,-30.01,0,*4F
1499382420.36,59201,17.38,74316.3,0.97,-25.29,-30.27,0,*46
1499382421.56,59202,17.38,74312.8,0.97,-25.23,-30.11,0,*4A
1499382422.76,59203,17.38,74314.5,0.97,-24.57,-29.23,0,*40
1499382423.99,59204,17.38,74310.5,0.97,-24.61,-29.35,0,*45
1499382425.23,59205,17.38,74304.3,0.99,-24.57,-29.13,0,*4B
1499382426.5,59206,17.38,74302.3,1.01,-24.71,-29.39,0,*74
1499382427.75,59207,17.38,74292.8,1.01,-24.67,-29.17,0,*7E
1499382428.98,59208,17.38,74286.5,1.01,-24.83,-29.45,0,*7C
1499382430.21,59209,17.38,74290.0,1.01,-25.19,-29.89,0,*7F
1499382431.41,59210,17.38,74294.8,1.01,-25.49,-30.11,0,*7B
1499382432.61,59211,17.38,74294.3,1.01,-25.39,-30.11,0,*7D
1499382433.81,59212,17.38,74296.5,1.01,-25.65,-30.23,0,*76
1499382435.07,59213,17.38,74304.5,0.99,-25.71,-30.27,0,*46
1499382436.33,59214,17.38,74310.0,0.99,-25.71,-30.33,0,*44
1499382437.59,59215,17.38,74308.3,0.99,-25.87,-30.55,0,*4C
1499382438.82,59216,17.38,74310.8,0.97,-25.87,-30.51,0,*45
1499382440.07,59217,17.38,74308.5,0.99,-25.91,-30.51,0,*4D
1499382441.3,59218,17.38,74308.3,0.97,-25.71,-30.27,0,*43
1499382442.56,59219,17.38,74306.3,0.99,-25.55,-29.95,0,*4B
1499382443.76,59220,17.38,74308.3,0.97,-24.97,-29.45,0,*4D
1499382444.99,59221,17.38,74310.0,0.97,-25.13,-29.51,0,*44
1499382446.21,59222,17.38,74306.3,0.97,-25.23,-29.51,0,*44
1499382447.44,59223,17.38,74306.0,0.99,-25.23,-29.67,0,*4E
1499382448.66,59224,17.38,74308.0,0.99,-25.23,-29.61,0,*4F
1499382449.86,59225,17.38,74308.0,1.01,-25.09,-29.45,0,*70
1499382451.09,59226,17.38,74310.5,0.99,-25.39,-29.67,0,*40
1499382452.35,59227,17.38,74306.0,0.99,-25.55,-29.83,0,*41
1499382453.55,59228,17.38,74300.8,1.01,-25.39,-29.61,0,*78
1499382454.76,59229,17.38,74302.3,1.01,-25.23,-29.57,0,*77
1499382455.96,59230,17.38,74306.5,1.01,-25.49,-29.79,0,*7F
1499382457.16,59231,17.38,74308.8,1.01,-25.39,-29.57,0,*75
1499382458.38,59232,17.38,74304.3,1.01,-25.35,-29.39,0,*72
1499382459.6,59233,17.38,74298.0,1.01,-25.19,-29.29,0,*7C
1499382460.82,59234,17.38,74300.0,1.01,-25.39,-29.73,0,*76
1499382462.05,59235,17.38,74304.3,1.03,-25.49,-29.61,0,*71
1499382463.28,59236,17.38,74306.0,1.03,-25.49,-29.79,0,*7B
1499382464.53,59237,17.38,74308.3,1.03,-25.55,-29.61,0,*7E
1499382465.75,59238,17.38,74314.5,1.01,-25.23,-29.29,0,*7E
1499382466.98,59239,17.38,74312.0,1.03,-25.49,-29.57,0,*78
1499382468.23,59240,17.38,74296.8,1.05,-25.45,-29.51,0,*7A
1499382469.5,59241,17.38,74316.8,1.07,-24.83,-28.85,0,*7A
1499382470.78,59242,17.38,74298.5,1.07,-24.87,-29.01,0,*70
1499382472.05,59243,17.38,74292.0,1.09,-25.29,-29.29,0,*70
1499382473.27,59244,17.38,74284.8,1.09,-24.97,-28.97,0,*77
1499382474.55,59245,17.38,74278.3,1.09,-25.29,-29.35,0,*7B
1499382475.81,59246,17.38,74290.3,1.09,-26.07,-30.17,0,*7F
1499382477.06,59247,17.38,74282.5,1.07,-25.91,-30.01,0,*7B
1499382478.32,59248,17.38,74288.0,1.09,-26.29,-30.23,0,*7A
1499382479.57,59249,17.38,74304.5,1.09,-26.23,-30.17,0,*76
1499382480.86,59250,17.38,74306.8,1.09,-26.29,-30.17,0,*74
1499382482.09,59251,17.38,74310.5,1.05,-26.29,-30.23,0,*7E
1499382483.35,59252,17.38,74304.5,1.07,-26.03,-30.05,0,*73
1499382484.59,59253,17.38,74292.0,1.05,-26.03,-29.89,0,*7C
1499382485.86,59254,17.38,74276.0,1.07,-26.33,-30.23,0,*72
1499382487.12,59255,17.38,74278.3,1.07,-26.49,-30.39,0,*75
1499382488.42,59256,17.38,74288.5,1.07,-26.77,-30.73,0,*75
1499382489.67,59257,17.38,74282.5,1.07,-26.61,-30.55,0,*77
1499382490.88,59258,17.38,74288.5,1.05,-26.61,-30.45,0,*7B
1499382492.17,59259,17.38,74294.5,1.07,-26.81,-30.55,0,*77
1499382493.43,59260,17.38,74304.0,1.05,-26.81,-30.55,0,*7F
1499382494.69,59261,17.38,74304.8,1.05,-26.81,-30.55,0,*7E
1499382495.92,59262,17.38,74306.3,1.07,-26.61,-30.27,0,*74
1499382497.12,59263,17.38,74306.0,1.05,-26.61,-30.23,0,*73
1499382498.36,59264,17.38,74306.3,1.07,-26.49,-30.23,0,*7C
1499382499.56,59265,17.38,74314.3,1.05,-26.61,-30.27,0,*71